TimeEDT,TemperatureF,Dew PointF,Humidity,Sea Level PressureIn,VisibilityMPH,Wind Direction,Wind SpeedMPH,Gust SpeedMPH,PrecipitationIn,Events,Conditions,WindDirDegrees,DateUTC
12:15 AM,59.9,57.4,91,30.10,10.0,Calm,Calm,-,N/A,,Scattered Clouds,0,2012-03-23 04:15:00
12:34 AM,60.1,57.7,92,30.10,7.0,Calm,Calm,-,N/A,,Clear,0,2012-03-23 04:34:00
12:54 AM,58.5,56.7,94,30.09,5.0,East,3.5,-,N/A,,Clear,80,2012-03-23 04:54:00
1:14 AM,57.0,55.8,96,30.08,1.8,ESE,3.5,-,N/A,,Mist,110,2012-03-23 05:14:00
1:34 AM,57.4,56.5,97,30.08,3.0,ESE,3.5,-,N/A,,Mist,110,2012-03-23 05:34:00
1:55 AM,57.7,56.8,97,30.07,5.0,East,4.6,-,N/A,,Clear,100,2012-03-23 05:55:00
2:14 AM,57.4,56.5,97,30.07,5.0,East,3.5,-,N/A,,Clear,90,2012-03-23 06:14:00
2:34 AM,55.8,54.9,97,30.07,2.5,SE,5.8,-,N/A,,Mist,130,2012-03-23 06:34:00
2:55 AM,57.0,56.3,97,30.07,5.0,ESE,3.5,-,N/A,,Clear,120,2012-03-23 06:55:00
3:14 AM,57.4,56.5,97,30.07,5.0,Calm,Calm,-,N/A,,Clear,0,2012-03-23 07:14:00
3:35 AM,57.0,56.1,97,30.07,4.0,Calm,Calm,-,N/A,,Clear,0,2012-03-23 07:35:00
3:54 AM,58.8,57.6,96,30.06,7.0,Calm,Calm,-,N/A,,Clear,0,2012-03-23 07:54:00
4:14 AM,57.6,56.1,95,30.06,5.0,Calm,Calm,-,N/A,,Clear,0,2012-03-23 08:14:00
4:35 AM,57.2,55.9,96,30.05,3.0,Calm,Calm,-,N/A,,Mist,0,2012-03-23 08:35:00
4:54 AM,56.8,55.8,96,30.05,4.0,East,3.5,-,N/A,,Clear,90,2012-03-23 08:54:00
5:15 AM,56.3,55.2,96,30.05,3.0,Calm,Calm,-,N/A,,Clear,0,2012-03-23 09:15:00
5:54 AM,55.4,54.5,97,30.05,2.0,Calm,Calm,-,N/A,,Clear,0,2012-03-23 09:54:00
6:15 AM,55.2,54.5,97,30.05,2.0,Calm,Calm,-,N/A,,Clear,0,2012-03-23 10:15:00
6:34 AM,56.5,55.9,98,30.05,4.0,Calm,Calm,-,N/A,,Clear,0,2012-03-23 10:34:00
6:54 AM,55.8,55.0,97,30.05,4.0,Calm,Calm,-,N/A,,Clear,0,2012-03-23 10:54:00
7:15 AM,56.3,55.4,97,30.05,5.0,NE,3.5,-,N/A,,Clear,50,2012-03-23 11:15:00
7:34 AM,55.9,54.9,96,30.05,4.0,ENE,3.5,-,N/A,,Clear,60,2012-03-23 11:34:00
7:54 AM,56.5,55.4,96,30.06,2.5,Calm,Calm,-,N/A,,Clear,0,2012-03-23 11:54:00
8:15 AM,56.1,54.9,96,30.07,2.0,West,3.5,-,N/A,,Clear,270,2012-03-23 12:15:00
8:34 AM,56.7,55.6,96,30.06,1.8,Calm,Calm,-,N/A,,Mist,0,2012-03-23 12:34:00
8:54 AM,57.2,56.1,96,30.06,2.5,Calm,Calm,-,N/A,,Clear,0,2012-03-23 12:54:00
9:14 AM,57.4,56.3,96,30.05,2.0,Calm,Calm,-,N/A,,Clear,0,2012-03-23 13:14:00
9:34 AM,58.1,56.8,96,30.05,3.0,Calm,Calm,-,N/A,,Clear,0,2012-03-23 13:34:00
9:55 AM,59.2,57.6,94,30.05,4.0,Calm,Calm,-,N/A,,Clear,0,2012-03-23 13:55:00
10:14 AM,61.2,57.6,88,30.06,5.0,South,5.8,-,N/A,,Clear,180,2012-03-23 14:14:00
10:34 AM,61.9,56.1,81,30.05,5.0,ESE,5.8,-,N/A,,Haze,120,2012-03-23 14:34:00
10:55 AM,63.9,55.2,73,30.05,7.0,SE,6.9,-,N/A,,Clear,140,2012-03-23 14:55:00
11:14 AM,63.7,54.9,73,30.05,7.0,South,6.9,-,N/A,,Scattered Clouds,180,2012-03-23 15:14:00
11:34 AM,64.6,54.7,70,30.05,7.0,SSW,4.6,-,N/A,,Scattered Clouds,200,2012-03-23 15:34:00
11:55 AM,66.2,54.3,65,30.04,10.0,Calm,Calm,-,N/A,,Clear,0,2012-03-23 15:55:00
12:14 PM,66.4,54.0,64,30.04,7.0,South,3.5,-,N/A,,Clear,190,2012-03-23 16:14:00
12:35 PM,67.5,54.3,63,30.03,7.0,Calm,Calm,-,N/A,,Clear,0,2012-03-23 16:35:00
12:54 PM,67.3,54.5,63,30.03,7.0,SSW,4.6,-,N/A,,Scattered Clouds,210,2012-03-23 16:54:00
1:14 PM,68.2,53.4,59,30.02,7.0,Calm,Calm,-,N/A,,Clear,0,2012-03-23 17:14:00
1:35 PM,68.9,53.6,58,30.01,10.0,Calm,Calm,-,N/A,,Clear,0,2012-03-23 17:35:00
1:54 PM,69.3,54.3,59,30.00,10.0,East,4.6,-,N/A,,Scattered Clouds,90,2012-03-23 17:54:00
2:14 PM,69.3,54.3,59,29.99,10.0,East,4.6,-,N/A,,Mostly Cloudy,80,2012-03-23 18:14:00
2:35 PM,68.4,54.5,61,29.97,10.0,NE,6.9,-,N/A,Rain,Light Rain,50,2012-03-23 18:35:00
2:54 PM,68.4,54.5,61,29.96,10.0,ENE,5.8,-,N/A,,Scattered Clouds,70,2012-03-23 18:54:00
3:14 PM,68.9,54.0,59,29.95,10.0,ENE,6.9,-,N/A,,Mostly Cloudy,70,2012-03-23 19:14:00
3:35 PM,69.1,54.1,59,29.95,10.0,East,5.8,-,N/A,,Overcast,80,2012-03-23 19:35:00
3:54 PM,69.4,54.1,58,29.94,10.0,East,5.8,-,N/A,,Overcast,100,2012-03-23 19:54:00
4:15 PM,69.4,54.0,58,29.94,10.0,East,3.5,-,N/A,,Overcast,90,2012-03-23 20:15:00
4:34 PM,69.3,54.9,60,29.92,10.0,NNE,3.5,-,N/A,,Overcast,30,2012-03-23 20:34:00
4:54 PM,69.4,54.0,58,29.92,10.0,Calm,Calm,-,N/A,Rain,Light Rain,0,2012-03-23 20:54:00
5:15 PM,69.4,55.6,61,29.91,10.0,Calm,Calm,-,N/A,Rain,Light Rain,0,2012-03-23 21:15:00
5:34 PM,68.9,56.1,64,29.91,10.0,East,5.8,-,N/A,,Overcast,90,2012-03-23 21:34:00
5:54 PM,68.2,55.4,64,29.90,10.0,East,6.9,-,N/A,,Overcast,80,2012-03-23 21:54:00
6:15 PM,66.9,55.0,66,29.89,10.0,East,8.1,-,N/A,,Light Drizzle,80,2012-03-23 22:15:00
6:34 PM,66.2,54.0,65,29.89,10.0,East,5.8,-,N/A,,Overcast,90,2012-03-23 22:34:00
6:54 PM,65.7,52.5,62,29.89,10.0,East,9.2,-,N/A,,Overcast,90,2012-03-23 22:54:00
7:15 PM,65.3,52.2,62,29.89,10.0,ESE,6.9,-,N/A,,Overcast,120,2012-03-23 23:15:00
7:34 PM,64.8,52.5,64,29.90,10.0,SE,8.1,-,N/A,Rain,Rain,130,2012-03-23 23:34:00
7:55 PM,63.5,53.8,71,29.91,10.0,SE,6.9,-,N/A,Rain,Light Rain,140,2012-03-23 23:55:00
8:14 PM,61.7,55.2,79,29.90,10.0,SE,8.1,-,N/A,Rain,Rain,130,2012-03-24 00:14:00
8:34 PM,60.6,55.9,85,29.90,7.0,SE,8.1,-,N/A,Rain,Light Rain,130,2012-03-24 00:34:00
8:55 PM,59.4,56.1,89,29.91,7.0,SE,9.2,-,N/A,Rain,Light Rain,140,2012-03-24 00:55:00
9:14 PM,58.5,55.8,91,29.90,5.0,ESE,8.1,-,N/A,Rain,Rain,120,2012-03-24 01:14:00
9:35 PM,58.1,55.9,93,29.90,5.0,ESE,6.9,-,N/A,Rain,Light Rain,110,2012-03-24 01:35:00
9:55 PM,58.1,56.3,94,29.89,5.0,SE,3.5,-,N/A,Rain,Light Rain,130,2012-03-24 01:55:00
10:14 PM,58.1,56.3,94,29.89,5.0,SSW,3.5,-,N/A,,Overcast,200,2012-03-24 02:14:00
10:35 PM,58.1,55.9,93,29.89,5.0,SSW,3.5,-,N/A,Rain,Rain,210,2012-03-24 02:35:00
10:54 PM,57.2,55.4,94,29.91,4.0,South,10.4,-,N/A,Rain,Rain,190,2012-03-24 02:54:00
11:14 PM,56.5,55.0,95,29.90,3.0,South,9.2,-,N/A,Rain,Heavy Rain,190,2012-03-24 03:14:00
11:35 PM,55.8,54.1,94,29.89,7.0,SSE,8.1,-,N/A,Rain,Light Rain,160,2012-03-24 03:35:00
11:54 PM,55.4,53.6,94,29.88,5.0,ESE,6.9,-,N/A,Rain,Rain,120,2012-03-24 03:54:00